Overview Statistics Trail Chart Weather Telemetry Raw packets
 

This is the latest recevied weather packets stored in our database for station/object KB0BDN-13. If no packets are shown the sender has not sent any weather packets the latest 10 day(s).

<< 2 3 4 5 6 7 8 >>
Time Temp. Humidity Pressure Rain* Wind** Luminosity Snow
1788652896 18.89° C 82% 1010.9 hPa 0 mm - - -
1788651996 20° C 81% 1010.9 hPa 0 mm - - -
1788651854 20° C 82% 1010.9 hPa 0 mm - - -
1788651096 20.56° C 82% 1010.9 hPa 0 mm - - -
1788650196 20.56° C 81% 1011 hPa 0 mm - - -
1788650054 20.56° C 82% 1011.3 hPa 0 mm - - -
1788649296 21.11° C 80% 1011.3 hPa 0 mm - - -
1788649155 21.11° C 81% 1011.3 hPa 0 mm - - -
1788648396 21.11° C 82% 1011.3 hPa 0 mm - - -
1788647495 21.11° C 79% 1011.4 hPa 0 mm - - -
1788646595 21.67° C 77% 1011.4 hPa 0 mm - - -
1788646454 21.67° C 77% 1011.5 hPa 0 mm - - -
1788645695 22.78° C 73% 1011.5 hPa 0 mm - - -
1788644795 23.33° C 72% 1011.6 hPa 0 mm - - -
1788644654 23.33° C 71% 1011.8 hPa 0 mm - - -
1788643894 23.33° C 70% 1011.8 hPa 0 mm - - -
1788642994 23.33° C 70% 1011.8 hPa 0 mm - - -
1788642853 23.33° C 72% 1011.9 hPa 0 mm - - -
1788642094 22.78° C 69% 1011.9 hPa 0 mm - - -
1788641953 22.78° C 68% 1011.9 hPa 0 mm - - -
1788641194 23.89° C 73% 1011.9 hPa 0 mm - - -
1788641054 23.89° C 70% 1012.1 hPa 0 mm - - -
1788640294 24.44° C 64% 1012.1 hPa 0 mm - - -
1788639394 24.44° C 65% 1011.9 hPa 0 mm - - -
1788638494 25° C 61% 1012.1 hPa 0 mm - - -

* Rain latest hour (hover to see other rain measurements)
** Current wind speed in m/s (hover to see current wind gust speed)